Regional Weather Roundup
Issued by NWS Northern Indiana

Home | Current Version | Previous Version | Text Only | Print | Product List | Glossary Off
Versions: 1 2 3 4 5 6 7 8 9 10 11 12 13 14 15 16 17 18 19 20 21 22 23 24 25 26 27 28 29 30 31 32 33 34 35 36 37 38 39 40 41 42 43 44 45 46 47 48 49 50

000
ASUS43 KIWX 180210
RWRIWX

KIWX WEATHER ROUNDUP
NATIONAL WEATHER SERVICE NORTHERN INDIANA
1000 PM EDT FRI APR 17 2015

NOTE: "FAIR" INDICATES FEW OR NO CLOUDS BELOW 12,000 FEET WITH NO
SIGNIFICANT WEATHER AND/OR OBSTRUCTIONS TO VISIBILITY.

* THESE STATIONS ARE NOT UNDER NWS QUALITY CONTROL. THEY ALSO MAY NOT
  REPORT WEATHER SUCH AS PRECIPITATION OR FOG.

INZ001>027-180300-
NORTHERN INDIANA

CITY           SKY/WX    TMP DP  RH WIND       PRES   REMARKS
GARY*          PTCLDY    59  45  58 SE7       30.01R
VALPARAISO     CLEAR     65  46  50 NE5       30.02R
MICHIGAN CITY* CLEAR     63  39  42 CALM      30.02R
KNOX*          CLEAR     63  28  27 CALM      30.01S
SOUTH BEND     CLEAR     62  45  53 CALM      30.03R
GOSHEN         PTCLDY    63  44  50 CALM      30.03R
MONTICELLO*    CLEAR     64  50  61 CALM      30.02R
LOGANSPORT*    CLEAR     59  50  72 S5        30.04R
ROCHESTER*     PTCLDY    70  46  43 CALM      30.04R
WARSAW*        MOCLDY    63  45  51 CALM      30.04R
ANGOLA*        CLEAR     55  46  71 CALM      30.04R
FORT WAYNE     MOCLDY    62  48  60 CALM      30.05R
HUNTINGTON*    MOCLDY    62  46  55 CALM      30.04R
PERU/GRISSOM   CLEAR     64  47  55 S5        30.03R
MARION*        PTCLDY    58  47  65 CALM      30.05R

$$
INZ028>050-180300-
CENTRAL INDIANA

CITY           SKY/WX    TMP DP  RH WIND       PRES   REMARKS
LAFAYETTE      CLEAR     59  49  69 CALM      30.02R
KOKOMO*        CLEAR     61  48  63 S5        30.04R
MUNCIE*        PTCLDY    62  45  53 CALM      30.05R
INDIANAPOLIS   PTCLDY    68  42  38 N5        30.03R

$$
MIZ043>046-050>051-056>058-064>065-071>073-077>080-180300-
SOUTHWEST LOWER MICHIGAN

CITY           SKY/WX    TMP DP  RH WIND       PRES   REMARKS
BATTLE CREEK   CLEAR     65  39  38 CALM      30.04R
BENTON HARBOR  CLEAR     60  46  59 CALM      30.01S
COLDWATER*     CLEAR     60  40  48 CALM      30.03S
HILLSDALE*     CLEAR     62  40  43 CALM      30.04R
HOLLAND        CLEAR     57  44  62 CALM      30.02F
GRAND RAPIDS   CLEAR     63  40  42 W6        30.02R
KALAMAZOO      CLEAR     63  42  46 CALM      30.03S
STURGIS*       CLEAR     61  45  55 CALM      30.03S
THREE RIVERS*  FAIR      60  43  53 CALM      30.04R

$$
OHZ001>008-015>018-024>025-180300-
NORTHWEST OHIO

CITY           SKY/WX    TMP DP  RH WIND       PRES   REMARKS
WAUSEON*       FAIR      63  45  51 W5        30.03R
DEFIANCE       PTCLDY    63  44  50 CALM      30.03R
FINDLAY        PTCLDY    61  43  51 S5        30.03R
TOLEDO EXPRESS PTCLDY    60  42  51 CALM      30.02R
TOLEDO METCALF PTCLDY    62  41  46 SW6       30.03R
LIMA           PTCLDY    64  39  39 S7        30.04R

$$
AND FOR LAKE MICHIGAN COASTAL AND OPEN LAKE BUOY OBSERVATIONS

STATION/POSITION TEMP    WIND        PRES    VSBY  WAVE
                 AIR SEA DIR/SP/G                  HT/PER
                 (F)     (DEG/KT/KT) (MB)    (MI)  (FT/S)
CALUMET HARBOR    62     110/  5/  8   N/A
MICHIGAN CITY     70     100/  6/  7   N/A
BURNS HARBOR      68     110/  2/  4 1016.6S
SAINT JOSEPH      66      90/  2/  2 1017.3R
MICHIGAN CITY     58 47                N/A           0

$$
&&



USA.gov is the U.S. government's official web portal to all federal, state and local government web resources and services.